Time,TemperatureF,DewpointF,PressureIn,WindDirection,WindDirectionDegrees,WindSpeedMPH,WindSpeedGustMPH,Humidity,HourlyPrecipIn,Conditions,Clouds,dailyrainin,SolarRadiationWatts/m^2,SoftwareType,DateUTC
2013-06-11 00:02:00,57.0,26.0,-100.00,North,351,7.0,16.0,30,0.00,,,0.00,0.000000,,2013-06-11 06:02:00,
2013-06-11 00:32:00,54.0,25.0,-100.00,NW,309,8.0,13.0,32,0.00,,,0.00,0.000000,,2013-06-11 06:32:00,
2013-06-11 00:42:00,54.0,25.0,-100.00,NW,309,8.0,13.0,32,0.00,,,0.00,0.000000,,2013-06-11 06:42:00,
2013-06-11 00:52:00,54.0,25.0,-100.00,NW,309,8.0,13.0,32,0.00,,,0.00,0.000000,,2013-06-11 06:52:00,
2013-06-11 01:02:00,54.0,25.0,-100.00,NW,309,8.0,13.0,32,0.00,,,0.00,0.000000,,2013-06-11 07:02:00,
2013-06-11 01:32:00,53.0,24.0,-100.00,NW,309,7.0,13.0,32,0.00,,,0.00,0.000000,,2013-06-11 07:32:00,
2013-06-11 01:42:00,53.0,24.0,-100.00,NW,309,7.0,13.0,32,0.00,,,0.00,0.000000,,2013-06-11 07:42:00,
2013-06-11 01:52:00,53.0,24.0,-100.00,NW,309,7.0,13.0,32,0.00,,,0.00,0.000000,,2013-06-11 07:52:00,
2013-06-11 02:02:00,53.0,24.0,-100.00,NW,309,7.0,13.0,32,0.00,,,0.00,0.000000,,2013-06-11 08:02:00,
2013-06-11 02:32:00,53.0,25.0,-100.00,NNW,334,10.0,14.0,33,0.00,,,0.00,0.000000,,2013-06-11 08:32:00,
2013-06-11 02:42:00,53.0,25.0,-100.00,NNW,334,10.0,14.0,33,0.00,,,0.00,0.000000,,2013-06-11 08:42:00,
2013-06-11 02:52:00,53.0,25.0,-100.00,NNW,334,10.0,14.0,33,0.00,,,0.00,0.000000,,2013-06-11 08:52:00,
2013-06-11 03:02:00,53.0,25.0,-100.00,NNW,334,10.0,14.0,33,0.00,,,0.00,0.000000,,2013-06-11 09:02:00,
2013-06-11 03:33:00,51.0,24.0,-100.00,WSW,242,5.0,10.0,34,0.00,,,-99.99,0.000000,,2013-06-11 09:33:00,
2013-06-11 03:43:00,51.0,24.0,-100.00,WSW,242,5.0,10.0,34,0.00,,,-99.99,0.000000,,2013-06-11 09:43:00,
2013-06-11 03:53:00,51.0,24.0,-100.00,WSW,242,5.0,10.0,34,0.00,,,-99.99,0.000000,,2013-06-11 09:53:00,
2013-06-11 04:03:00,51.0,24.0,-100.00,WSW,242,5.0,10.0,34,0.00,,,-99.99,0.000000,,2013-06-11 10:03:00,
2013-06-11 04:33:00,52.0,26.0,-100.00,WNW,298,4.0,8.0,36,0.00,,,0.00,0.000000,,2013-06-11 10:33:00,
2013-06-11 04:43:00,52.0,26.0,-100.00,WNW,298,4.0,8.0,36,0.00,,,0.00,0.000000,,2013-06-11 10:43:00,
2013-06-11 04:52:00,52.0,26.0,-100.00,WNW,298,4.0,8.0,36,0.00,,,0.00,0.000000,,2013-06-11 10:52:00,
2013-06-11 05:02:00,52.0,26.0,-100.00,WNW,298,4.0,8.0,36,0.00,,,0.00,0.000000,,2013-06-11 11:02:00,
2013-06-11 05:32:00,51.0,25.0,-100.00,SSW,203,3.0,8.0,36,0.00,,,-99.99,0.000000,,2013-06-11 11:32:00,
2013-06-11 05:42:00,51.0,25.0,-100.00,SSW,203,3.0,8.0,36,0.00,,,-99.99,0.000000,,2013-06-11 11:42:00,
2013-06-11 05:52:00,51.0,25.0,-100.00,SSW,203,3.0,8.0,36,0.00,,,-99.99,0.000000,,2013-06-11 11:52:00,
2013-06-11 06:02:00,51.0,25.0,-100.00,SSW,203,3.0,8.0,36,0.00,,,-99.99,0.000000,,2013-06-11 12:02:00,
2013-06-11 06:32:00,51.0,26.0,-100.00,NNE,19,4.0,6.0,37,0.00,,,-99.99,4.000000,,2013-06-11 12:32:00,
2013-06-11 06:42:00,51.0,26.0,-100.00,NNE,19,4.0,6.0,37,0.00,,,-99.99,4.000000,,2013-06-11 12:42:00,
2013-06-11 06:52:00,51.0,26.0,-100.00,NNE,19,4.0,6.0,37,0.00,,,-99.99,4.000000,,2013-06-11 12:52:00,
2013-06-11 07:02:00,51.0,26.0,-100.00,NNE,19,4.0,6.0,37,0.00,,,-99.99,4.000000,,2013-06-11 13:02:00,
2013-06-11 07:32:00,51.0,25.0,-100.00,WNW,302,3.0,6.0,36,0.00,,,-99.99,59.000000,,2013-06-11 13:32:00,
2013-06-11 07:42:00,51.0,25.0,-100.00,WNW,302,3.0,6.0,36,0.00,,,-99.99,59.000000,,2013-06-11 13:42:00,
2013-06-11 07:52:00,51.0,25.0,-100.00,WNW,302,3.0,6.0,36,0.00,,,-99.99,59.000000,,2013-06-11 13:52:00,
2013-06-11 08:02:00,51.0,25.0,-100.00,WNW,302,3.0,6.0,36,0.00,,,-99.99,59.000000,,2013-06-11 14:02:00,
2013-06-11 08:32:00,54.0,28.0,-100.00,WNW,285,0.0,5.0,37,0.00,,,0.00,194.000000,,2013-06-11 14:32:00,
2013-06-11 08:42:00,54.0,28.0,-100.00,WNW,285,0.0,5.0,37,0.00,,,0.00,194.000000,,2013-06-11 14:42:00,
2013-06-11 08:53:00,54.0,28.0,-100.00,WNW,285,0.0,5.0,37,0.00,,,0.00,194.000000,,2013-06-11 14:53:00,
2013-06-11 09:02:00,54.0,28.0,-100.00,WNW,285,0.0,5.0,37,0.00,,,0.00,194.000000,,2013-06-11 15:02:00,
2013-06-11 09:33:00,55.0,29.0,-100.00,NW,319,3.0,6.0,36,0.00,,,0.00,414.000000,,2013-06-11 15:33:00,
2013-06-11 09:43:00,55.0,29.0,-100.00,NW,319,3.0,6.0,36,0.00,,,0.00,414.000000,,2013-06-11 15:43:00,
2013-06-11 09:53:00,55.0,29.0,-100.00,NW,319,3.0,6.0,36,0.00,,,0.00,414.000000,,2013-06-11 15:53:00,
2013-06-11 10:02:00,55.0,29.0,-100.00,NW,319,3.0,6.0,36,0.00,,,0.00,414.000000,,2013-06-11 16:02:00,
2013-06-11 10:33:00,57.0,32.0,-100.00,WNW,300,4.0,7.0,39,0.00,,,0.00,649.000000,,2013-06-11 16:33:00,
2013-06-11 10:42:00,57.0,32.0,-100.00,WNW,300,4.0,7.0,39,0.00,,,0.00,649.000000,,2013-06-11 16:42:00,
2013-06-11 10:52:00,57.0,32.0,-100.00,WNW,300,4.0,7.0,39,0.00,,,0.00,649.000000,,2013-06-11 16:52:00,
2013-06-11 11:02:00,57.0,32.0,-100.00,WNW,300,4.0,7.0,39,0.00,,,0.00,649.000000,,2013-06-11 17:02:00,
2013-06-11 11:32:00,61.0,34.0,-100.00,WSW,250,3.0,6.0,36,0.00,,,0.00,901.000000,,2013-06-11 17:32:00,
2013-06-11 11:43:00,61.0,34.0,-100.00,WSW,250,3.0,6.0,36,0.00,,,0.00,901.000000,,2013-06-11 17:43:00,
2013-06-11 11:52:00,61.0,34.0,-100.00,WSW,250,3.0,6.0,36,0.00,,,0.00,901.000000,,2013-06-11 17:52:00,
2013-06-11 12:02:00,61.0,34.0,-100.00,WSW,250,3.0,6.0,36,0.00,,,0.00,901.000000,,2013-06-11 18:02:00,
2013-06-11 12:33:00,62.0,39.0,-100.00,WSW,253,3.0,9.0,42,0.00,,,0.00,949.000000,,2013-06-11 18:33:00,
2013-06-11 12:43:00,62.0,39.0,-100.00,WSW,253,3.0,9.0,42,0.00,,,0.00,949.000000,,2013-06-11 18:43:00,
2013-06-11 12:52:00,62.0,39.0,-100.00,WSW,253,3.0,9.0,42,0.00,,,0.00,949.000000,,2013-06-11 18:52:00,
2013-06-11 13:01:00,62.0,39.0,-100.00,WSW,253,3.0,9.0,42,0.00,,,0.00,949.000000,,2013-06-11 19:01:00,
2013-06-11 13:33:00,64.0,39.0,-100.00,NNE,15,3.0,8.0,40,0.00,,,0.00,695.000000,,2013-06-11 19:33:00,
2013-06-11 13:42:00,64.0,39.0,-100.00,NNE,15,3.0,8.0,40,0.00,,,0.00,695.000000,,2013-06-11 19:42:00,
2013-06-11 13:52:00,64.0,39.0,-100.00,NNE,15,3.0,8.0,40,0.00,,,0.00,695.000000,,2013-06-11 19:52:00,
2013-06-11 14:02:00,64.0,39.0,-100.00,NNE,15,3.0,8.0,40,0.00,,,0.00,695.000000,,2013-06-11 20:02:00,
2013-06-11 14:32:00,66.0,37.0,-100.00,WNW,294,6.0,10.0,34,0.00,,,0.00,948.000000,,2013-06-11 20:32:00,
2013-06-11 14:42:00,66.0,37.0,-100.00,WNW,294,6.0,10.0,34,0.00,,,0.00,948.000000,,2013-06-11 20:42:00,
2013-06-11 14:52:00,66.0,37.0,-100.00,WNW,294,6.0,10.0,34,0.00,,,0.00,948.000000,,2013-06-11 20:52:00,
2013-06-11 15:02:00,66.0,37.0,-100.00,WNW,294,6.0,10.0,34,0.00,,,0.00,948.000000,,2013-06-11 21:02:00,
2013-06-11 15:33:00,65.0,34.0,-100.00,NW,318,8.0,18.0,31,0.00,,,0.00,871.000000,,2013-06-11 21:33:00,
2013-06-11 15:42:00,65.0,34.0,-100.00,NW,318,8.0,18.0,31,0.00,,,0.00,871.000000,,2013-06-11 21:42:00,
2013-06-11 15:53:00,65.0,34.0,-100.00,NW,318,8.0,18.0,31,0.00,,,0.00,871.000000,,2013-06-11 21:53:00,
2013-06-11 16:03:00,65.0,34.0,-100.00,NW,318,8.0,18.0,31,0.00,,,0.00,871.000000,,2013-06-11 22:03:00,
2013-06-11 16:33:00,68.0,37.0,-100.00,NW,309,7.0,15.0,32,0.00,,,0.00,738.000000,,2013-06-11 22:33:00,
2013-06-11 16:42:00,68.0,37.0,-100.00,NW,309,7.0,15.0,32,0.00,,,0.00,738.000000,,2013-06-11 22:42:00,
2013-06-11 16:52:00,68.0,37.0,-100.00,NW,309,7.0,15.0,32,0.00,,,0.00,738.000000,,2013-06-11 22:52:00,
2013-06-11 17:02:00,68.0,37.0,-100.00,NW,309,7.0,15.0,32,0.00,,,0.00,738.000000,,2013-06-11 23:02:00,
2013-06-11 17:32:00,55.0,29.0,-100.00,North,350,15.0,28.0,36,0.00,,,0.00,169.000000,,2013-06-11 23:32:00,
2013-06-11 17:42:00,55.0,29.0,-100.00,North,350,15.0,28.0,36,0.00,,,0.00,169.000000,,2013-06-11 23:42:00,
2013-06-11 17:52:00,55.0,29.0,-100.00,North,350,15.0,28.0,36,0.00,,,0.00,169.000000,,2013-06-11 23:52:00,
2013-06-11 18:02:00,55.0,29.0,-100.00,North,350,15.0,28.0,36,0.00,,,0.00,169.000000,,2013-06-12 00:02:00,
2013-06-11 18:32:00,56.0,44.0,-100.00,WSW,255,5.0,31.0,64,0.04,,,0.04,127.000000,,2013-06-12 00:32:00,
2013-06-11 18:42:00,56.0,44.0,-100.00,WSW,255,5.0,31.0,64,0.04,,,0.04,127.000000,,2013-06-12 00:42:00,
2013-06-11 18:52:00,56.0,44.0,-100.00,WSW,255,5.0,31.0,64,0.04,,,0.04,127.000000,,2013-06-12 00:52:00,
2013-06-11 19:02:00,56.0,44.0,-100.00,WSW,255,5.0,31.0,64,0.04,,,0.04,127.000000,,2013-06-12 01:02:00,
2013-06-11 19:32:00,57.0,43.0,-100.00,WNW,291,8.0,14.0,59,0.00,,,0.04,244.000000,,2013-06-12 01:32:00,
2013-06-11 19:42:00,57.0,43.0,-100.00,WNW,291,8.0,14.0,59,0.00,,,0.04,244.000000,,2013-06-12 01:42:00,
2013-06-11 19:52:00,57.0,43.0,-100.00,WNW,291,8.0,14.0,59,0.00,,,0.04,244.000000,,2013-06-12 01:52:00,
2013-06-11 20:02:00,57.0,43.0,-100.00,WNW,291,8.0,14.0,59,0.00,,,0.04,244.000000,,2013-06-12 02:02:00,
2013-06-11 20:32:00,53.0,39.0,-100.00,North,351,6.0,11.0,60,0.00,,,0.04,173.000000,,2013-06-12 02:32:00,
2013-06-11 20:42:00,53.0,39.0,-100.00,North,351,6.0,11.0,60,0.00,,,0.04,173.000000,,2013-06-12 02:42:00,
2013-06-11 20:52:00,53.0,39.0,-100.00,North,351,6.0,11.0,60,0.00,,,0.04,173.000000,,2013-06-12 02:52:00,
2013-06-11 21:01:00,53.0,39.0,-100.00,North,351,6.0,11.0,60,0.00,,,0.04,173.000000,,2013-06-12 03:01:00,
2013-06-11 21:33:00,52.0,38.0,-100.00,North,7,10.0,16.0,59,0.00,,,0.04,90.000000,,2013-06-12 03:33:00,
2013-06-11 21:43:00,52.0,38.0,-100.00,North,7,10.0,16.0,59,0.00,,,0.04,90.000000,,2013-06-12 03:43:00,
2013-06-11 21:53:00,52.0,38.0,-100.00,North,7,10.0,16.0,59,0.00,,,0.04,90.000000,,2013-06-12 03:53:00,
2013-06-11 22:02:00,52.0,38.0,-100.00,North,7,10.0,16.0,59,0.00,,,0.04,90.000000,,2013-06-12 04:02:00,
2013-06-11 22:34:00,49.0,36.0,-100.00,North,351,8.0,17.0,61,0.00,,,0.04,7.000000,,2013-06-12 04:34:00,
2013-06-11 22:42:00,49.0,36.0,-100.00,North,351,8.0,17.0,61,0.00,,,0.04,7.000000,,2013-06-12 04:42:00,
2013-06-11 22:52:00,49.0,36.0,-100.00,North,351,8.0,17.0,61,0.00,,,0.04,7.000000,,2013-06-12 04:52:00,
2013-06-11 23:02:00,49.0,36.0,-100.00,North,351,8.0,17.0,61,0.00,,,0.04,7.000000,,2013-06-12 05:02:00,
2013-06-11 23:32:00,49.0,35.0,-100.00,North,1,8.0,14.0,59,0.00,,,0.04,0.000000,,2013-06-12 05:32:00,
2013-06-11 23:42:00,49.0,35.0,-100.00,North,1,8.0,14.0,59,0.00,,,0.04,0.000000,,2013-06-12 05:42:00,
2013-06-11 23:52:00,49.0,35.0,-100.00,North,1,8.0,14.0,59,0.00,,,0.04,0.000000,,2013-06-12 05:52:00,